COSMOS 1619

Satellite information

Favourite Embed

Satellite Type and Status

PAYLOADIN ORBIT

Key statistics

Satellite COSMOS 1619 at a glance.

Uptime

14896

Days in orbit

Revolutions

≈ 12.7

Per day

Orbit

LEO

Low Earth Orbit

Inclination

82.6

Latest

Satellite identification and parameters

Extended collection of information and parameters for COSMOS 1619.

Object identification

Identified? True

Debris? False

Object name: COSMOS 1619

International designator: 1985-003C

Object number (NORAD): 15471

Object ID (CCSDS): 15471

Country: COMMONWEALTH OF INDEPENDENT STATES (CIS)

Current information (Y/N): Y

RCS size: LARGE

Orbital parameters

Period: 113.72 minutes

Inclination: 82.6106 deg

SMA: 7775.304 km

Apoapsis: 1411.534 km

Periapsis: 1382.804 km

RAAN: 191.5604 deg

Eccentricy: 0.00184748

Argument of periapsis: 210.1643 deg

Mean anomaly: 322.8679 deg

Mean motion: 12.66271097 rev/day

Mean motion (dot): 0.00000042 rev/day2

B* drag term: 0.00016699704 1/REarth

Two-line elements (TLE)

Creation date: Oct. 28, 2025, 2:18 a.m.

Reference frame: TEME

Reference center: EARTH

Epoch: Oct. 27, 2025, 10:48 a.m. UTC

TLE line 0: 0 COSMOS 1619

TLE line 1: 1 15471U 85003C 25300.45047103 .00000042 00000-0 16700-3 0 9991

TLE line 2: 2 15471 82.6106 191.5604 0018475 210.1643 322.8679 12.66271097884593

Live tracking on map

Real-time ground track for satellite COSMOS 1619.

In-orbit conjunctions

There are no conjunctions computed for COSMOS 1619, at the moment. Check back to stay up to date, as we update our databases every day.

Go to all conjunctions

Associated space launch

Second generation store-dump military communications satellite

COSMOS 1619 was lifted into orbit during the mission ‘Tsiklon-3 | Strela-3 1 to 6’, on board a Tsiklon-3 space rocket.

The launch took place on Jan. 15, 1985, 2:50 p.m. from 32/1.

For more information about the launch, click the button.

Launch to space Tsiklon-3 | Strela-3 1 to 6
Tsiklon-3 | Strela-3 1 to 6

Agency: N/A

Status: Launch Successful

Launch date: Jan. 15, 1985, 2:50 p.m. UTC

Rocket: Tsiklon-3

Launch pad: 32/1

Location: Plesetsk Cosmodrome, Russian Federation

...

Latest news about this satellite

There are no fresh news available about this satellite. Check back as we update our databases every day.


Newsletter sign-up

Weekly statistics, charts and insights to help you stay on top of the space industry.